FW6014 Weather Reports


Display with metric or nautical units.
time (UTC)temp
F
wind
direction
speed
MPH
gust
MPH
rain 1hr
in
rain 24hr
in
rain mn
in
humidity
%
barometer
mb
20260831063615 51 271 0.0 0.0 0.00 0.11 0.00 96 1019.9
20260831063044 50 271 0.0 0.0 0.00 0.11 0.11 96 1019.9
20260831062613 51 271 0.0 0.0 0.00 0.11 0.00 96 1019.9
20260831062109 51 271 0.0 0.0 0.00 0.11 0.00 96 1020.0
20260831061645 51 271 0.0 0.0 0.00 0.11 0.11 96 1019.9
20260831061609 51 271 0.0 0.0 0.00 0.11 0.00 96 1020.0
20260831061109 52 271 0.0 0.0 0.00 0.11 0.00 96 1020.0
20260831060608 52 271 0.0 0.0 0.00 0.11 0.00 96 1019.9
20260831060109 53 271 0.0 0.0 0.00 0.11 0.00 96 1019.8
20260831060057 53 271 0.0 0.0 0.00 0.11 0.11 97 1019.8
20260831055109 53 271 0.0 0.0 0.00 0.11 0.00 97 1019.8
20260831054640 53 271 0.0 0.0 0.00 0.11 0.11 97 1019.8
20260831054609 53 271 0.0 0.0 0.00 0.11 0.00 97 1019.9
20260831053609 54 271 0.0 0.0 0.00 0.11 0.00 97 1019.8
20260831053109 54 271 0.0 0.0 0.00 0.11 0.00 97 1019.8
20260831053038 53 271 0.0 0.0 0.00 0.11 0.11 97 1019.7
20260831052109 54 271 0.0 0.0 0.00 0.11 0.00 97 1019.8
20260831051637 53 271 0.0 0.0 0.00 0.11 0.11 97 1019.8
20260831051609 54 271 0.0 0.0 0.00 0.11 0.00 97 1019.8
20260831051108 54 271 0.0 0.0 0.00 0.11 0.00 97 1019.7
20260831050609 54 271 0.0 0.0 0.00 0.11 0.00 97 1019.8
20260831050103 54 271 0.0 0.0 0.00 0.11 0.00 97 1019.8
20260831050042 53 271 0.0 0.0 0.00 0.11 0.11 97 1019.7
20260831045604 54 271 0.0 0.0 0.00 0.11 0.00 97 1019.7
20260831045103 54 271 0.0 0.0 0.00 0.11 0.00 97 1019.7
20260831044632 54 271 0.0 0.0 0.00 0.11 0.11 97 1019.6
20260831044604 54 271 0.0 0.0 0.00 0.11 0.00 97 1019.7
20260831044103 54 271 0.0 0.0 0.00 0.11 0.00 97 1019.6
20260831043605 54 271 0.0 0.0 0.00 0.11 0.00 97 1019.6
20260831043103 54 271 0.0 0.0 0.00 0.11 0.00 97 1019.5
20260831043033 54 271 0.0 0.0 0.00 0.11 0.11 97 1019.4
20260831042603 54 271 0.0 0.0 0.00 0.11 0.00 97 1019.5
20260831041629 54 271 0.0 0.0 0.00 0.11 0.11 96 1019.2
20260831041604 54 271 0.0 0.0 0.00 0.11 0.00 96 1019.3
20260831041102 54 271 0.0 0.0 0.00 0.11 0.00 96 1019.2
20260831040039 54 271 0.0 0.0 0.00 0.11 0.11 96 1019.1
20260831035601 55 271 0.0 0.0 0.00 0.11 0.11 96 1019.2
20260831035058 55 271 0.0 0.0 0.00 0.11 0.11 96 1019.2
20260831034607 54 271 0.0 0.0 0.00 0.11 0.11 96 1019.1
20260831034556 55 271 0.0 0.0 0.00 0.11 0.11 96 1019.1
20260831034053 55 271 0.0 0.0 0.00 0.11 0.11 96 1019.2
20260831033554 55 271 0.0 0.0 0.00 0.11 0.11 96 1019.0
20260831033053 55 271 0.0 0.0 0.00 0.11 0.11 96 1019.1
20260831033006 55 271 0.0 0.0 0.00 0.11 0.11 96 1019.0
20260831032553 55 271 0.0 0.0 0.00 0.11 0.11 96 1019.0
20260831032049 55 271 0.0 0.0 0.00 0.11 0.11 96 1019.1
20260831031605 55 271 0.0 0.0 0.00 0.11 0.11 96 1019.0
20260831031549 55 271 0.0 0.0 0.00 0.11 0.11 96 1019.0
20260831031046 55 271 0.0 0.0 0.00 0.11 0.11 96 1019.1
20260831030540 56 271 0.0 0.0 0.00 0.11 0.11 96 1019.0
20260831030039 56 271 0.0 0.0 0.00 0.11 0.11 96 1019.0
20260831025540 56 271 0.0 0.0 0.00 0.11 0.11 96 1019.0
20260831024549 56 271 0.0 0.0 0.01 0.11 0.11 95 1019.0
20260831024541 56 271 0.0 0.0 0.01 0.11 0.11 95 1019.1
20260831024040 57 271 0.0 0.0 0.01 0.11 0.11 95 1019.0
20260831023539 57 271 0.0 0.0 0.01 0.11 0.11 95 1019.1
20260831023142 56 271 0.0 0.0 0.01 0.11 0.11 95 1019.0
20260831023039 57 271 0.0 0.0 0.01 0.11 0.11 95 1019.0
20260831022537 57 271 0.0 0.0 0.01 0.11 0.11 95 1019.2
20260831022037 57 271 0.0 0.0 0.01 0.11 0.11 95 1018.9
20260831021543 57 271 0.0 0.0 0.01 0.11 0.11 95 1018.7
20260831021537 57 271 0.0 0.0 0.01 0.11 0.11 95 1018.9
20260831021036 58 271 0.0 0.0 0.02 0.11 0.11 95 1018.8
20260831020537 58 271 0.0 0.0 0.02 0.11 0.11 95 1018.6
20260831020135 57 271 0.0 1.0 0.03 0.11 0.11 95 1018.6
20260831020037 58 271 0.0 1.0 0.03 0.11 0.11 95 1018.7
20260831015534 58 271 0.0 1.0 0.04 0.11 0.11 95 1018.6
20260831015031 58 271 0.0 0.0 0.04 0.11 0.11 95 1018.7
20260831014546 57 271 0.0 0.0 0.03 0.10 0.10 95 1018.7
20260831014532 58 271 0.0 0.0 0.03 0.10 0.10 95 1018.8
20260831014029 58 271 0.0 0.0 0.04 0.10 0.10 95 1018.6
20260831013533 58 271 0.0 1.0 0.04 0.10 0.10 95 1018.7
20260831012529 58 271 0.0 1.0 0.10 0.10 0.10 94 1019.0
20260831012030 59 271 0.0 1.0 0.10 0.10 0.10 94 1019.1
20260831011529 58 271 0.0 1.0 0.10 0.10 0.10 93 1019.1
20260831011029 59 271 0.0 1.0 0.09 0.09 0.09 93 1019.2
20260831010529 60 271 0.0 2.0 0.09 0.09 0.09 92 1019.0
20260831010105 60 271 0.0 2.0 0.08 0.08 0.08 91 1018.8
20260831010025 60 271 0.0 2.0 0.08 0.08 0.07 92 1018.9
20260831005026 61 271 0.0 2.0 0.07 0.07 0.07 92 1018.7
20260831004506 61 271 0.0 1.0 0.07 0.07 0.07 91 1018.5
20260831004021 62 271 1.0 3.0 0.06 0.06 0.06 90 1018.6
20260831003519 64 271 1.0 3.0 0.06 0.06 0.06 87 1018.6
20260831003104 65 271 0.0 2.0 0.04 0.04 0.04 84 1018.5
20260831003018 65 271 0.0 1.0 0.03 0.03 0.02 84 1018.7
20260831002518 65 271 0.0 0.0 0.00 0.00 0.00 81 1017.9
20260831002016 65 271 0.0 0.0 0.00 0.00 0.00 80 1017.4
20260831001513 65 271 0.0 0.0 0.00 0.00 0.00 79 1017.2
20260831001504 65 271 0.0 0.0 0.00 0.00 0.00 79 1017.1
20260831001011 65 271 0.0 2.0 0.00 0.00 0.00 81 1017.2
20260831000509 65 271 0.0 2.0 0.00 0.00 0.00 79 1017.2
20260830235507 65 271 0.0 0.0 0.00 0.00 0.00 80 1017.1
20260830235002 66 271 0.0 2.0 0.00 0.00 0.00 79 1017.0
20260830234651 65 271 0.0 2.0 0.00 0.00 0.00 78 1016.9
20260830234501 65 271 0.0 2.0 0.00 0.00 0.00 79 1016.9
20260830234003 65 271 0.0 2.0 0.00 0.00 0.00 80 1017.0
20260830233502 65 271 0.0 2.0 0.00 0.00 0.00 80 1017.2
20260830233055 65 271 0.0 2.0 0.00 0.00 0.00 81 1017.0
20260830233001 65 271 1.0 2.0 0.00 0.00 0.00 81 1017.1
20260830232502 65 271 1.0 2.0 0.00 0.00 0.00 80 1017.0
20260830232002 65 271 0.0 2.0 0.00 0.00 0.00 80 1017.0
20260830231643 65 271 0.0 2.0 0.00 0.00 0.00 79 1016.8
20260830231502 66 271 0.0 2.0 0.00 0.00 0.00 80 1016.9
20260830230459 66 271 0.0 2.0 0.00 0.00 0.00 79 1017.0
20260830230042 66 271 0.0 2.0 0.00 0.00 0.00 79 1016.8
20260830225959 67 271 0.0 2.0 0.00 0.00 0.00 80 1016.9
20260830224958 67 271 0.0 4.0 0.00 0.00 0.00 78 1016.9
20260830224640 66 271 0.0 4.0 0.00 0.00 0.00 76 1016.8
20260830224457 66 271 0.0 3.0 0.00 0.00 0.00 79 1017.0
20260830223959 66 271 1.0 2.0 0.00 0.00 0.00 78 1017.0
20260830223456 66 271 1.0 2.0 0.00 0.00 0.00 78 1016.9
20260830223040 65 271 0.0 2.0 0.00 0.00 0.00 79 1016.6
20260830222954 66 271 1.0 2.0 0.00 0.00 0.00 79 1016.8
20260830222451 66 271 1.0 2.0 0.00 0.00 0.00 79 1016.8
20260830221950 66 271 1.0 2.0 0.00 0.00 0.00 79 1016.8
20260830221633 65 271 0.0 2.0 0.00 0.00 0.00 79 1016.7
20260830221448 66 271 1.0 2.0 0.00 0.00 0.00 79 1016.8
20260830220448 66 271 1.0 4.0 0.00 0.00 0.00 80 1016.8
20260830220053 65 271 0.0 2.0 0.00 0.00 0.00 80 1016.6
20260830215948 66 271 1.0 2.0 0.00 0.00 0.00 79 1016.7
20260830215446 65 271 1.0 3.0 0.00 0.00 0.00 79 1016.8
20260830214948 65 271 1.0 3.0 0.00 0.00 0.00 80 1016.7
20260830213939 65 271 1.0 3.0 0.00 0.00 0.00 81 1016.7
20260830213438 65 271 1.0 3.0 0.00 0.00 0.00 79 1016.7
20260830213031 64 271 1.0 2.0 0.00 0.00 0.00 81 1016.5
20260830212939 65 271 1.0 2.0 0.00 0.00 0.00 81 1016.8
20260830212438 65 271 1.0 2.0 0.00 0.00 0.00 81 1016.6
20260830211936 65 271 1.0 3.0 0.00 0.00 0.00 80 1016.5
20260830211626 65 271 0.0 3.0 0.00 0.00 0.00 82 1016.4
20260830211433 66 271 1.0 3.0 0.00 0.00 0.00 79 1016.6
20260830210432 67 271 0.0 3.0 0.00 0.00 0.00 78 1016.7
20260830210154 66 271 0.0 2.0 0.00 0.00 0.00 78 1016.5
20260830205430 66 271 0.0 4.0 0.00 0.00 0.00 82 1016.5
20260830204930 66 271 1.0 5.0 0.00 0.00 0.00 85 1016.6
20260830204618 66 271 0.0 5.0 0.00 0.00 0.00 87 1016.4
20260830204429 66 271 1.0 5.0 0.00 0.00 0.00 87 1016.5
20260830203929 66 271 0.0 2.0 0.00 0.00 0.00 89 1016.7
20260830203428 66 271 1.0 2.0 0.00 0.00 0.00 87 1016.4
20260830203003 66 271 0.0 2.0 0.00 0.00 0.00 86 1016.5
20260830202923 67 271 1.0 2.0 0.00 0.00 0.00 86 1016.7
20260830202418 67 271 0.0 2.0 0.00 0.00 0.00 85 1016.6
20260830201918 67 271 0.0 2.0 0.00 0.00 0.00 85 1016.6
20260830201630 67 271 0.0 1.0 0.00 0.00 0.00 84 1016.6
20260830201417 67 271 0.0 0.0 0.00 0.00 0.00 86 1016.8
20260830200917 67 271 0.0 0.0 0.00 0.00 0.00 86 1016.6
20260830200416 67 271 0.0 1.0 0.00 0.00 0.00 81 1016.5
20260830200004 67 271 0.0 1.0 0.00 0.00 0.00 86 1016.4
20260830195917 67 271 0.0 1.0 0.00 0.00 0.00 86 1016.6
20260830194918 67 271 0.0 0.0 0.00 0.00 0.00 86 1016.8
20260830194651 66 271 0.0 0.0 0.00 0.00 0.00 87 1016.6
20260830193918 67 271 0.0 1.0 0.00 0.00 0.00 85 1016.9
20260830193418 67 271 0.0 1.0 0.00 0.00 0.00 84 1017.1
20260830193003 66 271 0.0 0.0 0.00 0.00 0.00 87 1017.0
20260830192918 67 271 0.0 0.0 0.00 0.00 0.00 86 1017.2
20260830192417 67 271 0.0 0.0 0.00 0.00 0.00 87 1017.3
20260830191630 66 271 0.0 0.0 0.00 0.00 0.00 87 1017.2
20260830191417 66 271 0.0 0.0 0.00 0.00 0.00 88 1017.3
20260830190917 66 271 0.0 0.0 0.00 0.00 0.00 88 1017.4
20260830190417 66 271 0.0 1.0 0.00 0.00 0.00 86 1017.7
20260830190002 66 271 0.0 1.0 0.00 0.00 0.00 86 1017.4
20260830185917 67 271 0.0 1.0 0.00 0.00 0.00 86 1017.7
20260830185416 67 271 0.0 1.0 0.00 0.00 0.00 86 1017.8
20260830184918 67 271 0.0 1.0 0.00 0.00 0.00 83 1018.0
20260830184604 67 271 0.0 1.0 0.00 0.00 0.00 83 1017.7
20260830184418 68 271 0.0 1.0 0.00 0.00 0.00 80 1017.8
20260830183916 68 271 0.0 1.0 0.00 0.00 0.00 84 1017.8
20260830183418 67 271 0.0 1.0 0.00 0.00 0.00 82 1017.8
20260830183003 67 271 0.0 2.0 0.00 0.00 0.00 81 1017.5
20260830182916 67 271 0.0 2.0 0.00 0.00 0.00 80 1017.8
20260830182418 68 271 0.0 2.0 0.00 0.00 0.00 80 1017.9
20260830181917 68 271 0.0 1.0 0.00 0.00 0.00 82 1018.1
20260830181604 67 271 0.0 1.0 0.00 0.00 0.00 83 1017.8
20260830181417 67 271 0.0 5.0 0.00 0.00 0.00 84 1018.0
20260830180914 67 271 1.0 5.0 0.00 0.00 0.00 82 1018.0
20260830180157 66 271 1.0 3.0 0.00 0.00 0.00 81 1017.8
20260830175912 67 271 1.0 2.0 0.00 0.00 0.00 85 1018.2
20260830174909 66 271 0.0 4.0 0.00 0.00 0.00 83 1018.2
20260830174540 65 271 0.0 2.0 0.00 0.00 0.00 84 1018.0
20260830174408 65 271 0.0 2.0 0.00 0.00 0.00 83 1018.2
20260830173904 65 271 0.0 1.0 0.00 0.00 0.00 87 1018.3
20260830173402 65 271 0.0 0.0 0.00 0.00 0.00 89 1018.3
20260830173134 65 271 0.0 0.0 0.00 0.00 0.00 88 1018.1
20260830172903 65 271 0.0 0.0 0.00 0.00 0.00 89 1018.4
20260830172402 65 271 0.0 0.0 0.00 0.00 0.00 88 1018.4
20260830171902 65 271 0.0 1.0 0.00 0.00 0.00 88 1018.6
20260830171531 64 271 0.0 1.0 0.00 0.00 0.00 88 1018.4
20260830171401 65 271 0.0 1.0 0.00 0.00 0.00 89 1018.5
20260830170902 65 271 0.0 1.0 0.00 0.00 0.00 87 1018.5
20260830170401 65 271 0.0 0.0 0.00 0.00 0.00 86 1018.5
20260830170118 65 271 0.0 0.0 0.00 0.00 0.00 88 1018.2
20260830165902 65 271 0.0 1.0 0.00 0.00 0.00 87 1018.5
20260830165402 65 271 0.0 1.0 0.00 0.00 0.00 86 1018.2
20260830164902 65 271 0.0 1.0 0.00 0.00 0.00 83 1018.3
20260830164504 64 271 0.0 1.0 0.00 0.00 0.00 82 1018.2
20260830164401 65 271 0.0 3.0 0.00 0.00 0.00 82 1018.5
20260830163902 65 271 1.0 3.0 0.00 0.00 0.00 84 1018.6
20260830163402 65 271 0.0 2.0 0.00 0.00 0.00 82 1018.6
20260830163140 65 271 0.0 2.0 0.00 0.00 0.00 86 1018.4
20260830162403 65 271 0.0 2.0 0.00 0.00 0.00 84 1018.7
20260830161649 66 271 0.0 2.0 0.00 0.00 0.00 81 1018.7
20260830161402 67 271 0.0 2.0 0.00 0.00 0.00 83 1019.0
20260830160901 67 271 0.0 1.0 0.00 0.00 0.00 80 1019.0
20260830160043 67 271 0.0 1.0 0.00 0.00 0.00 78 1018.6
20260830155901 67 271 0.0 0.0 0.00 0.00 0.00 81 1018.8
20260830154902 67 271 0.0 0.0 0.00 0.00 0.00 82 1018.9
20260830154624 67 271 0.0 0.0 0.00 0.00 0.00 81 1018.5
20260830153902 67 271 0.0 1.0 0.00 0.00 0.00 80 1018.9
20260830153401 68 271 0.0 2.0 0.00 0.00 0.00 78 1018.8
20260830153128 68 271 0.0 2.0 0.00 0.00 0.00 77 1018.6
20260830152402 69 271 0.0 4.0 0.00 0.00 0.00 73 1018.9
20260830151903 69 271 0.0 4.0 0.00 0.00 0.00 75 1018.9
20260830151620 69 271 0.0 4.0 0.00 0.00 0.00 73 1018.8
20260830150902 70 270 0.0 0.0 0.00 0.00 0.00 75 1019.3
20260830150016 70 271 0.0 0.0 0.00 0.00 0.00 73 1019.1
20260830145902 71 271 0.0 0.0 0.00 0.00 0.00 72 1019.3
20260830145402 71 271 0.0 0.0 0.00 0.00 0.00 74 1019.4
20260830144901 71 271 0.0 0.0 0.00 0.00 0.00 76 1019.4
20260830144637 70 271 0.0 0.0 0.00 0.00 0.00 72 1019.1
20260830143901 70 271 0.0 0.0 0.00 0.00 0.00 72 1019.3
20260830143401 70 271 0.0 0.0 0.00 0.00 0.00 70 1019.3
20260830143151 70 271 0.0 0.0 0.00 0.00 0.00 76 1019.1
20260830142901 69 271 0.0 0.0 0.00 0.00 0.00 78 1019.3
20260830142403 68 271 0.0 0.0 0.00 0.00 0.00 76 1019.2
20260830141902 67 271 0.0 1.0 0.00 0.00 0.00 79 1019.2
20260830141541 66 271 0.0 1.0 0.00 0.00 0.00 75 1019.0
20260830141401 67 271 0.0 1.0 0.00 0.00 0.00 83 1019.3
20260830140901 65 271 0.0 0.0 0.00 0.00 0.00 79 1019.4
20260830140135 64 271 0.0 1.0 0.00 0.00 0.00 83 1019.4
20260830135902 65 271 0.0 1.0 0.00 0.00 0.00 80 1019.6
20260830135402 64 271 0.0 1.0 0.00 0.00 0.00 84 1019.5
20260830134903 64 271 0.0 1.0 0.00 0.00 0.00 86 1019.4
20260830134534 64 271 0.0 1.0 0.00 0.00 0.00 84 1019.2
20260830134401 64 271 0.0 1.0 0.00 0.00 0.00 83 1019.4
20260830133901 64 271 0.0 1.0 0.00 0.00 0.00 84 1019.4
20260830133402 64 271 0.0 0.0 0.00 0.00 0.00 85 1019.4
20260830133118 63 271 0.0 0.0 0.00 0.00 0.00 86 1019.2
20260830132401 63 271 0.0 1.0 0.00 0.00 0.00 84 1019.2
20260830131625 62 271 0.0 1.0 0.00 0.00 0.00 86 1019.1
20260830130902 61 271 0.0 4.0 0.00 0.00 0.00 85 1019.6
20260830130105 60 271 1.0 4.0 0.00 0.00 0.00 84 1019.5
20260830125901 60 271 0.0 2.0 0.00 0.00 0.00 86 1019.6
20260830125402 59 271 0.0 3.0 0.00 0.00 0.00 89 1019.5
20260830124646 58 271 0.0 3.0 0.00 0.00 0.00 88 1019.5
20260830124402 58 271 0.0 3.0 0.00 0.00 0.00 88 1019.6
20260830123903 58 271 0.0 3.0 0.00 0.00 0.00 90 1019.8
20260830123039 57 271 0.0 0.0 0.00 0.00 0.00 91 1019.6
20260830122902 57 271 0.0 0.0 0.00 0.00 0.00 91 1019.7
20260830122402 57 271 0.0 0.0 0.00 0.00 0.00 90 1019.9
20260830121902 57 271 0.0 0.0 0.00 0.00 0.00 91 1019.8
20260830121628 56 271 0.0 0.0 0.00 0.00 0.00 93 1019.8
20260830121404 56 271 0.0 0.0 0.00 0.00 0.00 93 1019.9
20260830120901 56 271 0.0 0.0 0.00 0.00 0.00 93 1019.8
20260830120402 55 271 0.0 0.0 0.00 0.00 0.00 94 1019.7
20260830120022 54 271 0.0 0.0 0.00 0.00 0.00 94 1019.6
20260830115901 54 271 0.0 0.0 0.00 0.00 0.00 94 1019.7
20260830115403 54 271 0.0 0.0 0.00 0.00 0.00 94 1019.8
20260830114902 53 271 0.0 0.0 0.00 0.00 0.00 95 1019.6
20260830114609 52 271 0.0 0.0 0.00 0.00 0.00 95 1019.4
20260830114401 53 271 0.0 0.0 0.00 0.00 0.00 95 1019.6
20260830113901 52 271 0.0 0.0 0.00 0.00 0.00 95 1019.7
20260830113401 52 271 0.0 0.0 0.00 0.00 0.00 95 1019.7
20260830113002 52 271 0.0 0.0 0.00 0.00 0.00 95 1019.5
20260830112902 52 271 0.0 0.0 0.00 0.00 0.00 95 1019.6
20260830112402 52 271 0.0 0.0 0.00 0.00 0.00 94 1019.5
20260830111903 51 271 0.0 0.0 0.00 0.00 0.00 95 1019.5
20260830111603 51 271 0.0 0.0 0.00 0.00 0.00 94 1019.6
20260830111402 51 271 0.0 0.0 0.00 0.00 0.00 95 1019.9
20260830110902 51 271 0.0 0.0 0.00 0.00 0.00 95 1019.8
20260830110126 51 271 0.0 0.0 0.00 0.00 0.00 95 1019.7
20260830105401 51 271 0.0 0.0 0.00 0.00 0.00 95 1019.7
20260830104641 51 271 0.0 0.0 0.00 0.00 0.00 95 1019.7
20260830103902 51 271 0.0 0.0 0.00 0.00 0.00 95 1019.8
20260830103400 51 271 0.0 0.0 0.00 0.00 0.00 95 1020.0
20260830103142 50 271 0.0 0.0 0.00 0.00 0.00 95 1019.9
20260830102901 51 271 0.0 0.0 0.00 0.00 0.00 95 1020.0
20260830101902 51 271 0.0 1.0 0.00 0.00 0.00 94 1019.9
20260830101542 50 271 0.0 2.0 0.00 0.00 0.00 95 1019.7
20260830101351 51 271 0.0 2.0 0.00 0.00 0.00 95 1019.8
20260830100845 51 271 0.0 2.0 0.00 0.00 0.00 94 1019.8
20260830100339 51 271 0.0 0.0 0.00 0.00 0.00 95 1019.7
20260830100142 50 271 0.0 0.0 0.00 0.00 0.00 95 1019.9
20260830095838 51 271 0.0 0.0 0.00 0.00 0.00 95 1020.0
20260830095338 51 271 0.0 0.0 0.00 0.00 0.00 94 1020.1
20260830094837 51 271 0.0 0.0 0.00 0.00 0.00 94 1020.0
20260830094542 51 271 0.0 0.0 0.00 0.00 0.00 95 1020.1
20260830094338 51 271 0.0 0.0 0.00 0.00 0.00 95 1020.1
20260830093839 51 271 0.0 1.0 0.00 0.00 0.00 96 1019.9
20260830093339 51 271 0.0 2.0 0.00 0.00 0.00 95 1020.1
20260830093135 50 271 0.0 2.0 0.00 0.00 0.00 95 1020.1
20260830092835 50 271 0.0 2.0 0.00 0.00 0.00 95 1020.1
20260830092337 50 271 0.0 2.0 0.00 0.00 0.00 94 1020.3
20260830091836 50 271 0.0 0.0 0.00 0.00 0.00 95 1020.1
20260830091534 50 271 0.0 0.0 0.00 0.00 0.00 94 1020.0
20260830091337 51 271 0.0 0.0 0.00 0.00 0.00 94 1020.2
20260830090833 51 271 0.0 0.0 0.00 0.00 0.00 95 1020.2
20260830090054 50 271 0.0 0.0 0.00 0.00 0.00 95 1020.2
20260830085330 51 271 0.0 0.0 0.00 0.00 0.00 95 1020.2
20260830084829 51 271 0.0 0.0 0.00 0.00 0.00 95 1020.3
20260830084606 50 271 0.0 0.0 0.00 0.00 0.00 95 1020.1
20260830083831 51 271 0.0 0.0 0.00 0.00 0.00 95 1020.2
20260830083330 51 271 0.0 0.0 0.00 0.00 0.00 95 1020.2
20260830083059 50 271 0.0 0.0 0.00 0.00 0.00 95 1020.1
20260830082330 51 271 0.0 0.0 0.00 0.00 0.00 95 1020.2
20260830081829 51 271 0.0 0.0 0.00 0.00 0.00 95 1020.1
20260830081557 50 271 0.0 0.0 0.00 0.00 0.00 95 1019.9
20260830080831 51 271 0.0 0.0 0.00 0.00 0.00 95 1020.2
20260830080330 51 271 0.0 0.0 0.00 0.00 0.00 95 1020.1
20260830080055 50 271 0.0 0.0 0.00 0.00 0.00 95 1019.9
20260830075829 50 271 0.0 0.0 0.00 0.00 0.00 95 1020.1
20260830075325 50 271 0.0 0.0 0.00 0.00 0.00 95 1020.1
20260830074825 50 271 0.0 0.0 0.00 0.00 0.00 95 1020.1
20260830074649 50 271 0.0 0.0 0.00 0.00 0.00 95 1019.9
20260830074325 50 271 0.0 0.0 0.00 0.00 0.00 95 1020.1
20260830073825 50 271 0.0 0.0 0.00 0.00 0.00 94 1020.3
20260830073325 50 271 0.0 0.0 0.00 0.00 0.00 95 1020.2
20260830073051 50 271 0.0 0.0 0.00 0.00 0.00 95 1020.1
20260830072823 50 271 0.0 0.0 0.00 0.00 0.00 95 1020.3
20260830072320 50 271 0.0 0.0 0.00 0.00 0.00 95 1020.4
20260830071645 50 271 0.0 0.0 0.00 0.00 0.00 95 1020.1
20260830071320 50 271 0.0 0.0 0.00 0.00 0.00 95 1020.2
20260830070821 50 271 0.0 0.0 0.00 0.00 0.00 95 1020.4
20260830070320 50 271 0.0 0.0 0.00 0.00 0.00 95 1020.4
20260830070104 50 271 0.0 0.0 0.00 0.00 0.00 95 1020.1
20260830065319 50 271 0.0 0.0 0.00 0.00 0.00 94 1020.2
20260830064820 50 271 0.0 0.0 0.00 0.00 0.00 95 1020.1
20260830064647 50 271 0.0 0.0 0.00 0.00 0.00 95 1020.1
20260830064319 50 271 0.0 0.0 0.00 0.00 0.00 94 1020.3